[[{"header":{"parameterUnit":"m.s-1","parameterCategory":1,"la1":30.2991,"la2":30.254,"lo1":-89.0895,"lo2":-89.0444,"dy":0.0017,"dx":0.0017,"nx":28,"ny":28,"refTime":"2024-05-10T09:00:00:Z","depth":0,"parameterNumber":2,"parameterNumberName":"U-component_of_WINDS"},"data":[0,0,0,0,0,0,0,0,0,0,0,0,0,0,0,0,0,0,0,0,0,0,0,0,0,0,0,0,0,0,0,0,0,0,0,0,0,0,0,0,0,0,0,0,0,0,0,0,0,0,0,0,0,0,0,0,0,0,-3.6252,-3.6252,0,-3.6246,-3.6246,-3.6246,-3.6165,-3.6163,-3.6161,-3.6159,-3.6153,-3.6155,-3.6157,0,0,0,0,0,0,0,0,0,0,0,0,0,-3.6195,-3.6196,-3.6252,-3.6252,-3.6252,-3.6246,-3.6246,-3.6246,-3.6166,-3.6163,-3.6161,-3.6158,-3.6153,-3.6155,-3.6157,0,0,0,0,0,0,0,0,0,0,0,0,0,-3.6208,-3.6197,-3.6252,-3.6211,-3.6208,-3.6246,-3.6246,-3.6246,-3.6166,-3.6163,-3.616,-3.6157,-3.6152,-3.6155,-3.6157,-3.6234,0,0,-3.6165,-3.6166,0,0,0,0,0,0,0,0,-3.6207,-3.621,-3.6217,-3.6214,-3.621,-3.6203,-3.6223,-3.6242,-3.6167,-3.6182,-3.6159,-3.6156,-3.6173,-3.6173,-3.6179,-3.6234,-3.6234,-3.6165,-3.6167,-3.6168,-3.6169,0,0,0,0,0,0,0,-3.6206,-3.6209,-3.625,-3.6218,-3.6213,-3.6193,-3.6192,-3.6227,-3.6194,-3.618,-3.6175,-3.6175,-3.617,-3.6176,-3.6178,-3.6234,-3.6165,-3.6168,-3.6169,-3.617,-3.6353,-3.6356,0,0,0,0,0,0,-3.6211,-3.6209,-3.625,-3.6249,-3.6201,-3.6197,-3.6195,-3.6209,-3.6194,-3.6189,-3.6178,-3.6171,-3.6174,-3.6175,-3.6178,-3.6267,-3.6168,-3.6171,-3.6172,-3.6349,-3.6353,-3.6357,0,0,0,0,0,0,-3.621,-3.6215,-3.625,-3.6228,-3.6231,-3.6201,-3.6217,-3.621,-3.6217,-3.6192,-3.6186,-3.619,-3.6171,-3.6174,-3.6221,-3.6266,-3.6172,-3.6174,-3.6345,-3.6351,-3.6355,-3.6448,0,0,0,0,0,0,-3.6209,-3.6215,-3.6244,-3.6229,-3.6232,-3.6294,-3.622,-3.6212,-3.6221,-3.6213,-3.6202,-3.6197,-3.6169,-3.6218,-3.6224,-3.6268,-3.6176,-3.6341,-3.6348,-3.6353,-3.644,-3.6455,-3.6468,0,0,0,0,0,-3.6207,-3.6271,-3.6246,-3.6252,-3.6268,-3.6297,-3.6298,-3.6265,-3.6225,-3.6254,-3.6238,-3.6197,-3.626,-3.6223,-3.6229,-3.6275,-3.6338,-3.6346,-3.6353,-3.6434,-3.6452,-3.6467,0,0,0,0,0,0,-3.6292,-3.6268,-3.6241,-3.6301,-3.6302,-3.6283,-3.6318,-3.6285,-3.6296,-3.6288,-3.6246,-3.6244,-3.6298,-3.6291,-3.625,-3.6349,-3.6292,-3.6301,-3.6352,-3.6369,-3.6382,-3.6383,-3.6178,0,0,0,0,0,-3.6318,-3.6343,-3.6321,-3.6376,-3.6378,-3.6349,-3.636,-3.6334,-3.6332,-3.6332,-3.6319,-3.632,-3.634,-3.6354,-3.637,-3.6439,-3.6436,-3.6473,-3.6487,-3.6498,-3.6507,-3.6543,-3.656,-3.6381,-3.6381,-3.6381,0,0,-3.6372,-3.6361,-3.638,-3.6393,-3.639,-3.6418,-3.6349,-3.6381,-3.6401,-3.6337,-3.6381,-3.6372,-3.6369,-3.6428,-3.6453,-3.6424,-3.6555,-3.6508,-3.6517,-3.6519,-3.6552,-3.6569,-3.6585,-3.6386,-3.6385,-3.6384,0,0,-3.6484,-3.6478,-3.6524,-3.6523,-3.652,-3.65,-3.6511,-3.6497,-3.6489,-3.6532,-3.6485,-3.6508,-3.6543,-3.6543,-3.6548,-3.6661,-3.6624,-3.6667,-3.6739,-3.6775,-3.6789,-3.6801,-3.6842,-3.6857,-3.6676,-3.6676,-3.6676,0,-3.6551,-3.659,-3.6552,-3.6588,-3.6595,-3.6538,-3.6585,-3.6585,-3.6588,-3.6594,-3.6561,-3.6604,-3.6598,-3.6657,-3.6684,-3.669,-3.6701,-3.6669,-3.679,-3.6802,-3.6813,-3.6851,-3.6867,-3.6681,-3.668,-3.668,-3.6679,0,-3.6673,-3.6701,-3.6739,-3.6743,-3.6754,-3.6795,-3.6764,-3.678,-3.6753,-3.6737,-3.6782,-3.6773,-3.6787,-3.6799,-3.6773,-3.6854,-3.6836,-3.6797,-3.6739,-3.6836,-3.6871,-3.6886,-3.6689,-3.6687,-3.6685,-3.6684,0,0,-3.6839,-3.6822,-3.6836,-3.6838,-3.683,-3.6851,-3.6889,-3.6903,-3.6918,-3.6922,-3.6953,-3.6984,-3.6948,-3.6954,-3.6927,-3.6959,-3.7049,-3.6916,-3.6915,-3.6942,-3.7139,-3.7169,-3.7186,-3.7024,-3.7027,-3.7029,-3.7139,0,-3.6948,-3.7012,-3.698,-3.7048,-3.7074,-3.7021,-3.7054,-3.7053,-3.7039,-3.7059,-3.7042,-3.7065,-3.7016,-3.7019,-3.7048,-3.7032,-3.7088,-3.7024,-3.7054,-3.7056,-3.7057,-3.7205,-3.7236,-3.734,-3.7153,-3.7155,-3.7157,0,-3.7083,-3.7093,-3.7165,-3.7152,-3.7162,-3.7193,-3.7203,-3.7222,-3.722,-3.7207,-3.7214,-3.718,-3.7217,-3.7159,-3.721,-3.7166,-3.7177,-3.7171,-3.7174,-3.7176,-3.7113,-3.7212,-3.7373,-3.7389,-3.7178,-3.7176,-3.7175,0,-3.7198,-3.7229,-3.7276,-3.7278,-3.7265,-3.7288,-3.7284,-3.7278,-3.7289,-3.7298,-3.7305,-3.7318,-3.7325,-3.7337,-3.7307,-3.7268,-3.7362,-3.7302,-3.7353,-3.7354,-3.7376,-3.7375,-3.7542,-3.7382,-3.7382,-3.7381,-3.7381,0,-3.7324,-3.737,-3.7327,-3.7356,-3.7406,-3.7368,-3.7419,-3.7409,-3.7405,-3.7431,-3.7385,-3.7411,-3.737,-3.7391,-3.7368,-3.7414,-3.7418,-3.7409,-3.7403,-3.7414,-3.7415,-3.7421,-3.7413,-3.7385,-3.7384,-3.7384,-3.7383,0,-3.7461,-3.7434,-3.7482,-3.7466,-3.7462,-3.75,-3.7486,-3.7513,-3.7495,-3.7529,-3.7534,-3.7507,-3.753,-3.7502,-3.7522,-3.7507,-3.757,-3.7552,-3.7571,-3.7566,-3.7619,-3.7615,-3.7796,-3.7818,-3.7643,-3.7645,-3.7646,0,-3.7543,-3.7577,-3.7565,-3.7579,-3.7577,-3.7601,-3.7611,-3.7575,-3.7588,-3.7588,-3.7615,-3.7634,-3.7648,-3.7687,-3.7669,-3.7685,-3.7668,-3.773,-3.767,-3.768,-3.767,-3.7669,-3.7672,-3.7743,-3.7745,-3.7747,-3.7748,0,-3.7692,-3.7677,-3.7694,-3.7707,-3.7721,-3.773,-3.7734,-3.7749,-3.7711,-3.7728,-3.7751,-3.7761,-3.7782,-3.7802,-3.7813,-3.7808,-3.7773,-3.7767,-3.778,-3.7792,-3.7802,-3.7798,-3.7605,-3.7763,-3.7762,-3.776,-3.776,-3.7759,-3.7805,-3.7833,-3.7829,-3.7849,-3.7849,-3.7855,-3.7879,-3.7864,-3.7883,-3.7897,-3.7875,-3.7904,-3.7901,-3.7912,-3.7911,-3.7934,-3.7907,-3.7926,-3.793,-3.7936,-3.7945,-3.7798,-3.7936,-3.7935,-3.7935,-3.7934,-3.7934,0,-3.7952,-3.7947,-3.7966,-3.7975,-3.7991,-3.7955,-3.7959,-3.7975,-3.8001,-3.8002,-3.8016,-3.8043,-3.8062,-3.8046,-3.8061,-3.8083,-3.8067,-3.8088,-3.8087,-3.8087,-3.7967,-3.7955,-3.8101,-3.8101,-3.8101,-3.8101,-3.8101,-3.8101,-3.8031,-3.8077,-3.8062,-3.8107,-3.8101,-3.813,-3.8135,-3.814,-3.814,-3.8172,-3.8188,-3.8177,-3.8171,-3.8186,-3.8202,-3.8197,-3.8205,-3.8233,-3.8222,-3.8111,-3.8095,-3.8079,-3.8067,-3.8235,-3.8235,-3.834,-3.8341,-3.8341]},{"header":{"parameterUnit":"m.s-1","parameterCategory":1,"la1":30.2991,"la2":30.254,"lo1":-89.0895,"lo2":-89.0444,"dy":0.0017,"dx":0.0017,"nx":28,"ny":28,"refTime":"2024-05-10T09:00:00:Z","depth":0,"parameterNumber":3,"parameterNumberName":"V-component_of_WINDS"},"data":[0,0,0,0,0,0,0,0,0,0,0,0,0,0,0,0,0,0,0,0,0,0,0,0,0,0,0,0,0,0,0,0,0,0,0,0,0,0,0,0,0,0,0,0,0,0,0,0,0,0,0,0,0,0,0,0,0,0,-3.8501,-3.8501,0,-3.8497,-3.8497,-3.8497,-3.8447,-3.8445,-3.8444,-3.8443,-3.8439,-3.844,-3.8441,0,0,0,0,0,0,0,0,0,0,0,0,0,-3.8463,-3.8464,-3.8501,-3.85,-3.85,-3.8497,-3.8497,-3.8497,-3.8447,-3.8445,-3.8444,-3.8442,-3.8439,-3.844,-3.8442,0,0,0,0,0,0,0,0,0,0,0,0,0,-3.8472,-3.8465,-3.8501,-3.8475,-3.8473,-3.8497,-3.8497,-3.8497,-3.8447,-3.8445,-3.8443,-3.8442,-3.8439,-3.844,-3.8442,-3.849,0,0,-3.8447,-3.8447,0,0,0,0,0,0,0,0,-3.8471,-3.8473,-3.8479,-3.8477,-3.8474,-3.847,-3.8483,-3.8495,-3.8448,-3.8457,-3.8443,-3.8441,-3.8451,-3.8452,-3.8455,-3.849,-3.849,-3.8447,-3.8448,-3.8449,-3.8449,0,0,0,0,0,0,0,-3.8471,-3.8473,-3.8499,-3.8479,-3.8476,-3.8464,-3.8463,-3.8485,-3.8465,-3.8456,-3.8452,-3.8453,-3.845,-3.8454,-3.8455,-3.849,-3.8447,-3.8448,-3.8449,-3.845,-3.8564,-3.8566,0,0,0,0,0,0,-3.8474,-3.8473,-3.8499,-3.8499,-3.8468,-3.8466,-3.8465,-3.8474,-3.8464,-3.8461,-3.8454,-3.845,-3.8452,-3.8453,-3.8454,-3.8511,-3.8449,-3.845,-3.8451,-3.8562,-3.8565,-3.8567,0,0,0,0,0,0,-3.8473,-3.8477,-3.8499,-3.8485,-3.8487,-3.8469,-3.8479,-3.8475,-3.8479,-3.8463,-3.8459,-3.8462,-3.845,-3.8452,-3.8482,-3.851,-3.8451,-3.8452,-3.856,-3.8563,-3.8566,-3.8624,0,0,0,0,0,0,-3.8472,-3.8477,-3.8495,-3.8486,-3.8488,-3.8527,-3.8481,-3.8476,-3.8482,-3.8476,-3.847,-3.8467,-3.8449,-3.848,-3.8483,-3.8511,-3.8454,-3.8557,-3.8561,-3.8565,-3.862,-3.8629,-3.8637,0,0,0,0,0,-3.8471,-3.8511,-3.8496,-3.85,-3.851,-3.8529,-3.853,-3.8509,-3.8484,-3.8502,-3.8492,-3.8467,-3.8506,-3.8483,-3.8487,-3.8516,-3.8555,-3.856,-3.8565,-3.8616,-3.8627,-3.8636,0,0,0,0,0,0,-3.8524,-3.851,-3.8493,-3.8531,-3.8532,-3.852,-3.8543,-3.8521,-3.8529,-3.8524,-3.8497,-3.8496,-3.853,-3.8525,-3.85,-3.8562,-3.8526,-3.8532,-3.8564,-3.8574,-3.8583,-3.8583,-3.8455,0,0,0,0,0,-3.8541,-3.8557,-3.8543,-3.8578,-3.8579,-3.8561,-3.8568,-3.8552,-3.8551,-3.8551,-3.8543,-3.8544,-3.8556,-3.8565,-3.8575,-3.8618,-3.8616,-3.864,-3.8649,-3.8656,-3.8661,-3.8684,-3.8695,-3.8582,-3.8582,-3.8582,0,0,-3.8574,-3.8568,-3.858,-3.8589,-3.8587,-3.8605,-3.8562,-3.8582,-3.8594,-3.8554,-3.8582,-3.8576,-3.8575,-3.8612,-3.8627,-3.8609,-3.8692,-3.8662,-3.8668,-3.8669,-3.869,-3.8701,-3.871,-3.8585,-3.8585,-3.8584,0,0,-3.8645,-3.8642,-3.8671,-3.867,-3.8668,-3.8656,-3.8663,-3.8655,-3.865,-3.8677,-3.8647,-3.8662,-3.8684,-3.8684,-3.8687,-3.8758,-3.8735,-3.8762,-3.8807,-3.8829,-3.8838,-3.8846,-3.8872,-3.8881,-3.8767,-3.8767,-3.8767,0,-3.8687,-3.8712,-3.8689,-3.8711,-3.8716,-3.868,-3.871,-3.871,-3.8712,-3.8716,-3.8695,-3.8722,-3.8719,-3.8755,-3.8772,-3.8776,-3.8783,-3.8763,-3.8839,-3.8846,-3.8853,-3.8877,-3.8887,-3.8771,-3.877,-3.877,-3.8769,0,-3.8764,-3.8782,-3.8806,-3.8809,-3.8816,-3.8842,-3.8822,-3.8832,-3.8816,-3.8805,-3.8834,-3.8828,-3.8837,-3.8844,-3.8828,-3.8879,-3.8868,-3.8843,-3.8807,-3.8868,-3.889,-3.8899,-3.8775,-3.8774,-3.8773,-3.8772,0,0,-3.8868,-3.8858,-3.8867,-3.8868,-3.8863,-3.8877,-3.8901,-3.891,-3.8919,-3.8922,-3.8941,-3.8961,-3.8938,-3.8942,-3.8925,-3.8945,-3.9002,-3.8918,-3.8917,-3.8934,-3.9058,-3.9077,-3.9088,-3.8986,-3.8988,-3.8989,-3.9058,0,-3.8937,-3.8978,-3.8957,-3.9001,-3.9017,-3.8983,-3.9004,-3.9004,-3.8995,-3.9008,-3.8997,-3.9012,-3.8981,-3.8983,-3.9001,-3.8991,-3.9026,-3.8986,-3.9005,-3.9006,-3.9007,-3.9099,-3.9119,-3.9185,-3.9067,-3.9068,-3.9069,0,-3.9022,-3.9028,-3.9074,-3.9066,-3.9072,-3.9092,-3.9098,-3.911,-3.9109,-3.9101,-3.9105,-3.9084,-3.9107,-3.9071,-3.9102,-3.9075,-3.9082,-3.9078,-3.908,-3.9082,-3.9042,-3.9104,-3.9205,-3.9215,-3.9083,-3.9081,-3.908,0,-3.9094,-3.9114,-3.9144,-3.9145,-3.9137,-3.9152,-3.9149,-3.9146,-3.9152,-3.9158,-3.9162,-3.917,-3.9175,-3.9182,-3.9164,-3.9139,-3.9198,-3.916,-3.9193,-3.9193,-3.9207,-3.9207,-3.9311,-3.921,-3.921,-3.921,-3.921,0,-3.9173,-3.9202,-3.9176,-3.9194,-3.9226,-3.9202,-3.9234,-3.9227,-3.9225,-3.9241,-3.9213,-3.9229,-3.9203,-3.9217,-3.9202,-3.9231,-3.9233,-3.9228,-3.9224,-3.9231,-3.9232,-3.9235,-3.923,-3.9213,-3.9212,-3.9212,-3.9211,0,-3.926,-3.9243,-3.9273,-3.9263,-3.9261,-3.9285,-3.9276,-3.9293,-3.9282,-3.9303,-3.9307,-3.9289,-3.9304,-3.9286,-3.9299,-3.9289,-3.9329,-3.9317,-3.9329,-3.9326,-3.936,-3.9357,-3.9471,-3.9485,-3.9375,-3.9376,-3.9377,0,-3.9312,-3.9333,-3.9325,-3.9334,-3.9333,-3.9348,-3.9355,-3.9332,-3.934,-3.9341,-3.9357,-3.9369,-3.9378,-3.9403,-3.9391,-3.9401,-3.939,-3.9429,-3.9391,-3.9398,-3.9392,-3.9391,-3.9393,-3.9437,-3.9439,-3.944,-3.9441,0,-3.9405,-3.9396,-3.9407,-3.9415,-3.9424,-3.9429,-3.9432,-3.9441,-3.9418,-3.9428,-3.9443,-3.9449,-3.9463,-3.9475,-3.9482,-3.9479,-3.9456,-3.9453,-3.9461,-3.9468,-3.9475,-3.9472,-3.9351,-3.945,-3.9449,-3.9449,-3.9448,-3.9448,-3.9476,-3.9494,-3.9492,-3.9505,-3.9505,-3.9508,-3.9523,-3.9514,-3.9526,-3.9535,-3.9521,-3.9539,-3.9537,-3.9544,-3.9543,-3.9558,-3.9541,-3.9552,-3.9555,-3.9559,-3.9564,-3.9472,-3.9559,-3.9558,-3.9558,-3.9558,-3.9558,0,-3.9569,-3.9566,-3.9578,-3.9584,-3.9594,-3.9571,-3.9574,-3.9584,-3.96,-3.9601,-3.961,-3.9626,-3.9638,-3.9628,-3.9638,-3.9651,-3.9641,-3.9655,-3.9654,-3.9654,-3.9578,-3.9571,-3.9663,-3.9663,-3.9663,-3.9663,-3.9663,-3.9663,-3.9619,-3.9648,-3.9639,-3.9667,-3.9663,-3.9681,-3.9685,-3.9688,-3.9688,-3.9708,-3.9718,-3.9711,-3.9707,-3.9716,-3.9726,-3.9723,-3.9728,-3.9746,-3.9739,-3.9669,-3.9659,-3.9649,-3.9642,-3.9747,-3.9747,-3.9813,-3.9813,-3.9814]}]]